• En España
  • Lista de países
  • Para 7 días
  • Temperatura del agua
  • Mapa Satelital
  • El tiempo en el mapa
  • Informadores
  • user-avatar
    Iniciar sesión

    Tiempo cada hora Gorodische

    Hoy, 14 Agosto, Martes

    Tiempo Temperatura Precipitaciones Viento Presión Humedad
    00:00 +17°C° 0 mm 2 mps 742 mmHg 80%
    01:00 +17°C° 0 mm 2 mps 742 mmHg 80%
    02:00 +16°C° 0 mm 2 mps 743 mmHg 80%
    03:00 +16°C° 0 mm 1 mps 743 mmHg 79%
    04:00 +16°C° 0 mm 2 mps 743 mmHg 78%
    05:00 +16°C° 0 mm 2 mps 743 mmHg 77%
    06:00 +17°C° 0 mm 2 mps 743 mmHg 76%
    07:00 +18°C° 0 mm 2 mps 744 mmHg 72%
    08:00 +19°C° 0 mm 2 mps 744 mmHg 68%
    09:00 +20°C° 0 mm 3 mps 744 mmHg 63%
    10:00 +21°C° 0,1 mm 3 mps 744 mmHg 61%
    11:00 +21°C° 0,1 mm 4 mps 744 mmHg 58%
    12:00 +22°C° 0,1 mm 4 mps 744 mmHg 56%
    13:00 +22°C° 0,2 mm 4 mps 744 mmHg 55%
    14:00 +23°C° 0,2 mm 5 mps 744 mmHg 55%
    15:00 +23°C° 0 mm 5 mps 744 mmHg 52%
    16:00 +22°C° 0 mm 4 mps 745 mmHg 56%
    17:00 +21°C° 0 mm 4 mps 745 mmHg 61%
    18:00 +21°C° 0 mm 3 mps 745 mmHg 65%
    19:00 +19°C° 0 mm 3 mps 745 mmHg 69%
    20:00 +18°C° 0 mm 3 mps 746 mmHg 72%
    21:00 +16°C° 0 mm 2 mps 746 mmHg 76%
    22:00 +16°C° 0 mm 2 mps 746 mmHg 76%
    23:00 +15°C° 0 mm 2 mps 746 mmHg 77%

    Mañana, 15 Agosto, Miércoles

    Tiempo Temperatura Precipitaciones Viento Presión Humedad
    00:00 +15°C° 0 mm 2 mps 747 mmHg 78%
    01:00 +14°C° 0 mm 2 mps 747 mmHg 79%
    02:00 +14°C° 0 mm 2 mps 747 mmHg 79%
    03:00 +14°C° 0 mm 2 mps 747 mmHg 80%
    04:00 +14°C° 0 mm 2 mps 748 mmHg 80%
    05:00 +15°C° 0 mm 2 mps 748 mmHg 80%
    06:00 +15°C° 0 mm 2 mps 748 mmHg 80%
    07:00 +17°C° 0 mm 2 mps 748 mmHg 73%
    08:00 +19°C° 0 mm 2 mps 748 mmHg 67%
    09:00 +21°C° 0 mm 3 mps 748 mmHg 60%
    10:00 +22°C° 0 mm 3 mps 748 mmHg 56%
    11:00 +24°C° 0 mm 3 mps 748 mmHg 51%
    12:00 +25°C° 0 mm 3 mps 748 mmHg 46%
    13:00 +26°C° 0 mm 4 mps 748 mmHg 47%
    14:00 +26°C° 0 mm 4 mps 748 mmHg 49%
    15:00 +26°C° 0 mm 4 mps 748 mmHg 50%
    16:00 +25°C° 0 mm 3 mps 748 mmHg 55%
    17:00 +24°C° 0 mm 3 mps 747 mmHg 60%
    18:00 +24°C° 0 mm 2 mps 747 mmHg 65%
    19:00 +21°C° 0 mm 3 mps 747 mmHg 68%
    20:00 +20°C° 0 mm 3 mps 747 mmHg 71%
    21:00 +19°C° 0 mm 3 mps 747 mmHg 74%
    22:00 +19°C° 0 mm 3 mps 747 mmHg 72%
    23:00 +19°C° 0 mm 4 mps 747 mmHg 71%

    Pasado mañana, 16 Agosto, Jueves

    Tiempo Temperatura Precipitaciones Viento Presión Humedad
    00:00 +19°C° 0 mm 4 mps 746 mmHg 69%
    01:00 +19°C° 0 mm 5 mps 746 mmHg 67%
    02:00 +19°C° 0 mm 5 mps 746 mmHg 66%
    03:00 +19°C° 0 mm 5 mps 746 mmHg 64%
    04:00 +19°C° 0 mm 5 mps 746 mmHg 66%
    05:00 +19°C° 0 mm 5 mps 746 mmHg 67%
    06:00 +19°C° 0 mm 6 mps 745 mmHg 69%
    07:00 +20°C° 0 mm 6 mps 745 mmHg 67%
    08:00 +22°C° 0 mm 6 mps 745 mmHg 64%
    09:00 +23°C° 0 mm 7 mps 745 mmHg 62%
    10:00 +26°C° 0 mm 6 mps 745 mmHg 60%
    11:00 +27°C° 0 mm 6 mps 745 mmHg 58%
    12:00 +28°C° 0 mm 6 mps 745 mmHg 56%
    13:00 +28°C° 0,6 mm 6 mps 745 mmHg 58%
    14:00 +28°C° 0,6 mm 6 mps 745 mmHg 60%
    15:00 +28°C° 0,6 mm 6 mps 745 mmHg 62%
    16:00 +26°C° 0,9 mm 5 mps 745 mmHg 68%
    17:00 +25°C° 0,9 mm 3 mps 745 mmHg 75%
    18:00 +24°C° 0,9 mm 2 mps 745 mmHg 82%
    19:00 +23°C° 0,2 mm 2 mps 745 mmHg 84%
    20:00 +21°C° 0,2 mm 2 mps 745 mmHg 86%
    21:00 +21°C° 0,2 mm 1 mps 746 mmHg 88%
    22:00 +20°C° 0,1 mm 1 mps 746 mmHg 89%
    23:00 +20°C° 0,1 mm 1 mps 746 mmHg 90%

    17 Agosto, Viernes

    Tiempo Temperatura Precipitaciones Viento Presión Humedad
    00:00 +19°C° 0,1 mm 1 mps 746 mmHg 91%
    01:00 +19°C° 0,4 mm 1 mps 746 mmHg 93%
    02:00 +18°C° 0,4 mm 2 mps 746 mmHg 94%
    03:00 +18°C° 0,4 mm 2 mps 746 mmHg 95%
    04:00 +17°C° 0,2 mm 2 mps 746 mmHg 95%
    05:00 +17°C° 0,2 mm 2 mps 746 mmHg 95%
    06:00 +17°C° 0,2 mm 2 mps 746 mmHg 95%
    07:00 +18°C° 0,2 mm 2 mps 747 mmHg 93%
    08:00 +18°C° 0,2 mm 3 mps 747 mmHg 90%
    09:00 +19°C° 0,2 mm 3 mps 747 mmHg 87%
    10:00 +19°C° 0,2 mm 3 mps 747 mmHg 82%
    11:00 +20°C° 0,2 mm 3 mps 747 mmHg 78%
    12:00 +21°C° 0,2 mm 3 mps 747 mmHg 74%
    13:00 +21°C° 0,1 mm 3 mps 747 mmHg 70%
    14:00 +22°C° 0,1 mm 3 mps 747 mmHg 67%
    15:00 +22°C° 0,1 mm 3 mps 747 mmHg 64%
    16:00 +21°C° 0,2 mm 3 mps 748 mmHg 67%
    17:00 +20°C° 0,2 mm 3 mps 748 mmHg 70%
    18:00 +20°C° 0,2 mm 3 mps 748 mmHg 74%
    19:00 +18°C° 0 mm 3 mps 748 mmHg 76%
    20:00 +17°C° 0 mm 3 mps 748 mmHg 78%
    21:00 +16°C° 0 mm 3 mps 748 mmHg 80%
    22:00 +14°C° 0 mm 3 mps 748 mmHg 80%
    23:00 +13°C° 0 mm 3 mps 749 mmHg 80%

    18 Agosto, Sábado

    Tiempo Temperatura Precipitaciones Viento Presión Humedad
    00:00 +13°C° 0 mm 3 mps 749 mmHg 80%
    01:00 +12°C° 0 mm 3 mps 749 mmHg 82%
    02:00 +12°C° 0 mm 3 mps 749 mmHg 84%
    03:00 +11°C° 0 mm 3 mps 749 mmHg 86%
    04:00 +11°C° 0 mm 3 mps 750 mmHg 85%
    05:00 +11°C° 0 mm 4 mps 750 mmHg 85%
    06:00 +11°C° 0 mm 4 mps 750 mmHg 84%
    07:00 +13°C° 0 mm 4 mps 750 mmHg 78%
    08:00 +15°C° 0 mm 5 mps 750 mmHg 71%
    09:00 +16°C° 0 mm 5 mps 751 mmHg 64%
    10:00 +17°C° 0 mm 5 mps 751 mmHg 62%
    11:00 +19°C° 0 mm 5 mps 751 mmHg 59%
    12:00 +20°C° 0 mm 5 mps 751 mmHg 56%
    13:00 +20°C° 0 mm 5 mps 751 mmHg 55%
    14:00 +20°C° 0 mm 5 mps 751 mmHg 54%
    15:00 +21°C° 0 mm 5 mps 751 mmHg 54%
    16:00 +20°C° 0 mm 4 mps 751 mmHg 58%
    17:00 +19°C° 0 mm 4 mps 751 mmHg 63%
    18:00 +18°C° 0 mm 3 mps 751 mmHg 67%
    19:00 +17°C° 0 mm 3 mps 751 mmHg 71%
    20:00 +16°C° 0 mm 2 mps 751 mmHg 75%
    21:00 +14°C° 0 mm 2 mps 752 mmHg 78%
    22:00 +14°C° 0 mm 2 mps 752 mmHg 80%
    23:00 +13°C° 0 mm 2 mps 752 mmHg 82%

    19 Agosto, Domingo

    Tiempo Temperatura Precipitaciones Viento Presión Humedad
    00:00 +12°C° 0 mm 2 mps 752 mmHg 84%
    01:00 +12°C° 0 mm 2 mps 752 mmHg 85%
    02:00 +12°C° 0 mm 2 mps 752 mmHg 86%
    03:00 +10°C° 0 mm 2 mps 752 mmHg 87%
    04:00 +10°C° 0 mm 2 mps 752 mmHg 86%
    05:00 +12°C° 0 mm 2 mps 752 mmHg 85%
    06:00 +12°C° 0 mm 2 mps 752 mmHg 85%
    07:00 +14°C° 0 mm 2 mps 752 mmHg 77%
    08:00 +14°C° 0 mm 3 mps 752 mmHg 70%
    09:00 +17°C° 0 mm 3 mps 752 mmHg 63%
    10:00 +18°C° 0 mm 3 mps 752 mmHg 58%
    11:00 +19°C° 0 mm 3 mps 752 mmHg 54%
    12:00 +20°C° 0 mm 3 mps 752 mmHg 49%
    13:00 +21°C° 0 mm 3 mps 751 mmHg 48%
    14:00 +21°C° 0 mm 3 mps 751 mmHg 47%
    15:00 +21°C° 0 mm 2 mps 751 mmHg 46%
    16:00 +20°C° 0 mm 2 mps 751 mmHg 51%
    17:00 +20°C° 0 mm 2 mps 751 mmHg 56%
    18:00 +20°C° 0 mm 1 mps 750 mmHg 61%
    19:00 +18°C° 0 mm 1 mps 750 mmHg 64%
    20:00 +16°C° 0 mm 1 mps 750 mmHg 66%
    21:00 +14°C° 0 mm 1 mps 750 mmHg 69%
    22:00 +14°C° 0 mm 1 mps 750 mmHg 70%
    23:00 +14°C° 0 mm 1 mps 750 mmHg 71%
    Mostrar más